QPF
0.00 0.00 0.00 0.00 0.00 0.00 0.00 0.00 0.00 0.00 0.00 0.00 0.00 0.00 0.00 0.00 0.01 0.01 0.01 0.02 0.01 0.01 0.00 0.00 0.01 0.01 0.01 0.01 0.02 0.05 0.08 0.11 0.12 0.13 0.13 0.14 0.13 0.11 0.10 0.06 0.04 0.04 0.05 0.05
0.00 0.00 0.00 0.00 0.00 0.00 0.00 0.00 0.00 0.00 0.00 0.00 0.00 0.00 0.01 0.01 0.01 0.01 0.01 0.01 0.01 0.00 0.00 0.01 0.01 0.02 0.02 0.02 0.04 0.05 0.07 0.10 0.12 0.12 0.12 0.12 0.11 0.09 0.06 0.04 0.04 0.04 0.05 0.05
0.00 0.00 0.00 0.00 0.00 0.00 0.00 0.00 0.00 0.00 0.00 0.00 0.00 0.00 0.01 0.01 0.01 0.01 0.01 0.01 0.00 0.00 0.01 0.01 0.02 0.02 0.03 0.03 0.04 0.04 0.05 0.06 0.06 0.06 0.07 0.08 0.07 0.05 0.04 0.03 0.03 0.03 0.03 0.04
0.00 0.00 0.00 0.00 0.00 0.00 0.00 0.00 0.00 0.00 0.00 0.00 0.00 0.01 0.01 0.00 0.00 0.00 0.01 0.01 0.01 0.01 0.01 0.01 0.02 0.02 0.02 0.03 0.04 0.04 0.03 0.03 0.03 0.03 0.05 0.07 0.09 0.08 0.07 0.05 0.03 0.03 0.03 0.03
0.00 0.00 0.00 0.00 0.00 0.00 0.00 0.00 0.00 0.00 0.00 0.00 0.00 0.01 0.01 0.00 0.00 0.00 0.00 0.01 0.01 0.01 0.01 0.01 0.02 0.02 0.02 0.03 0.03 0.03 0.02 0.02 0.02 0.03 0.04 0.04 0.04 0.06 0.08 0.07 0.06 0.05 0.05 0.05
0.00 0.00 0.00 0.00 0.00 0.00 0.00 0.00 0.00 0.00 0.00 0.01 0.00 0.01 0.01 0.00 0.00 0.00 0.00 0.01 0.01 0.01 0.01 0.01 0.01 0.02 0.03 0.03 0.03 0.03 0.03 0.02 0.02 0.03 0.03 0.03 0.03 0.03 0.04 0.05 0.05 0.07 0.08 0.08
0.00 0.00 0.00 0.00 0.00 0.00 0.00 0.00 0.00 0.00 0.01 0.00 0.00 0.00 0.00 0.00 0.01 0.01 0.00 0.00 0.01 0.02 0.02 0.02 0.03 0.03 0.04 0.04 0.03 0.03 0.02 0.02 0.02 0.03 0.03 0.03 0.03 0.04 0.05 0.04 0.04 0.04 0.05 0.07
0.00 0.00 0.00 0.00 0.00 0.00 0.00 0.00 0.01 0.01 0.01 0.00 0.00 0.00 0.00 0.01 0.01 0.01 0.00 0.00 0.01 0.02 0.02 0.03 0.03 0.03 0.04 0.04 0.04 0.05 0.03 0.03 0.04 0.04 0.03 0.03 0.03 0.03 0.04 0.04 0.05 0.04 0.04 0.03
0.00 0.00 0.00 0.00 0.00 0.00 0.00 0.00 0.00 0.01 0.01 0.00 0.00 0.01 0.01 0.01 0.01 0.01 0.00 0.00 0.01 0.01 0.02 0.02 0.03 0.03 0.04 0.04 0.05 0.05 0.04 0.04 0.05 0.05 0.04 0.03 0.03 0.03 0.03 0.03 0.05 0.05 0.04 0.02
0.00 0.00 0.00 0.00 0.00 0.00 0.00 0.00 0.01 0.01 0.01 0.01 0.01 0.01 0.01 0.01 0.01 0.01 0.01 0.01 0.01 0.01 0.02 0.02 0.02 0.02 0.02 0.03 0.04 0.05 0.05 0.06 0.06 0.06 0.06 0.04 0.03 0.04 0.05 0.06 0.04 0.03 0.02 0.02
0.00 0.00 0.00 0.00 0.00 0.00 0.00 0.00 0.00 0.01 0.01 0.01 0.01 0.02 0.01 0.02 0.01 0.01 0.02 0.01 0.01 0.01 0.01 0.02 0.01 0.01 0.01 0.02 0.03 0.03 0.04 0.04 0.04 0.06 0.09 0.09 0.08 0.08 0.08 0.07 0.04 0.03 0.02 0.02
0.00 0.00 0.00 0.00 0.00 0.00 0.00 0.00 0.00 0.01 0.01 0.01 0.02 0.02 0.02 0.02 0.01 0.01 0.01 0.01 0.01 0.01 0.01 0.01 0.01 0.01 0.01 0.01 0.02 0.03 0.03 0.03 0.04 0.06 0.09 0.11 0.10 0.07 0.05 0.04 0.04 0.03 0.03 0.03
0.00 0.00 0.00 0.00 0.00 0.00 0.00 0.00 0.00 0.01 0.01 0.01 0.02 0.03 0.02 0.01 0.01 0.01 0.01 0.01 0.01 0.01 0.01 0.01 0.01 0.01 0.01 0.01 0.02 0.02 0.02 0.02 0.04 0.06 0.08 0.10 0.10 0.06 0.05 0.04 0.03 0.02 0.02 0.03
0.00 0.00 0.00 0.00 0.01 0.00 0.00 0.00 0.00 0.01 0.01 0.02 0.03 0.02 0.02 0.01 0.01 0.01 0.01 0.01 0.01 0.01 0.01 0.00 0.01 0.02 0.02 0.01 0.01 0.01 0.02 0.03 0.05 0.09 0.12 0.12 0.11 0.08 0.05 0.05 0.04 0.03 0.03 0.04
0.00 0.00 0.00 0.00 0.00 0.00 0.01 0.01 0.00 0.01 0.01 0.02 0.02 0.02 0.02 0.02 0.01 0.01 0.01 0.01 0.01 0.01 0.00 0.00 0.00 0.01 0.01 0.01 0.01 0.02 0.05 0.07 0.11 0.12 0.12 0.11 0.09 0.07 0.05 0.05 0.06 0.05 0.04 0.05
0.00 0.00 0.01 0.01 0.00 0.01 0.02 0.01 0.01 0.01 0.01 0.02 0.02 0.02 0.02 0.01 0.01 0.01 0.01 0.01 0.01 0.01 0.01 0.00 0.00 0.00 0.01 0.01 0.01 0.01 0.03 0.05 0.07 0.10 0.09 0.07 0.07 0.05 0.04 0.03 0.04 0.05 0.08 0.07
0.00 0.00 0.01 0.01 0.01 0.02 0.02 0.01 0.01 0.02 0.02 0.02 0.03 0.02 0.01 0.01 0.01 0.01 0.01 0.01 0.01 0.01 0.01 0.01 0.01 0.01 0.01 0.01 0.01 0.02 0.02 0.04 0.06 0.06 0.07 0.07 0.07 0.05 0.04 0.03 0.04 0.06 0.11 0.09
0.01 0.00 0.01 0.01 0.01 0.01 0.01 0.01 0.01 0.02 0.02 0.02 0.03 0.02 0.01 0.01 0.01 0.01 0.01 0.01 0.02 0.02 0.02 0.01 0.01 0.01 0.01 0.01 0.01 0.02 0.02 0.04 0.06 0.07 0.07 0.06 0.06 0.05 0.04 0.04 0.06 0.11 0.11 0.07
0.00 0.00 0.00 0.00 0.01 0.01 0.01 0.01 0.02 0.02 0.03 0.03 0.02 0.01 0.01 0.01 0.01 0.01 0.01 0.02 0.03 0.02 0.01 0.01 0.02 0.03 0.02 0.02 0.02 0.02 0.02 0.04 0.05 0.06 0.06 0.06 0.07 0.06 0.05 0.06 0.10 0.13 0.09 0.05
0.01 0.01 0.00 0.00 0.01 0.02 0.03 0.01 0.01 0.02 0.04 0.04 0.02 0.01 0.01 0.01 0.02 0.02 0.01 0.02 0.02 0.02 0.01 0.02 0.03 0.03 0.02 0.03 0.02 0.02 0.02 0.03 0.04 0.05 0.06 0.07 0.07 0.07 0.06 0.07 0.09 0.09 0.06 0.04
0.00 0.00 0.00 0.01 0.02 0.04 0.03 0.01 0.01 0.03 0.05 0.04 0.01 0.01 0.01 0.01 0.03 0.03 0.03 0.02 0.02 0.02 0.02 0.02 0.03 0.03 0.03 0.02 0.01 0.01 0.01 0.03 0.04 0.05 0.06 0.06 0.06 0.06 0.06 0.06 0.06 0.05 0.03 0.03
0.00 0.00 0.00 0.01 0.02 0.04 0.02 0.01 0.02 0.03 0.04 0.02 0.01 0.01 0.01 0.01 0.02 0.02 0.02 0.03 0.02 0.02 0.02 0.02 0.04 0.03 0.02 0.01 0.00 0.01 0.01 0.02 0.03 0.04 0.05 0.06 0.06 0.06 0.05 0.05 0.04 0.03 0.02 0.03
0.00 0.00 0.00 0.01 0.02 0.02 0.01 0.01 0.01 0.01 0.02 0.01 0.01 0.01 0.01 0.01 0.02 0.02 0.02 0.03 0.02 0.02 0.02 0.02 0.04 0.03 0.01 0.00 0.01 0.01 0.01 0.02 0.03 0.04 0.04 0.05 0.05 0.05 0.04 0.03 0.03 0.02 0.02 0.03
0.00 0.00 0.00 0.00 0.00 0.00 0.00 0.00 0.00 0.00 0.01 0.01 0.01 0.01 0.01 0.01 0.01 0.02 0.02 0.03 0.02 0.03 0.03 0.02 0.04 0.03 0.01 0.01 0.01 0.01 0.01 0.01 0.02 0.03 0.03 0.04 0.04 0.04 0.03 0.02 0.02 0.02 0.03 0.03
0.00 0.01 0.01 0.01 0.01 0.01 0.00 0.00 0.00 0.00 0.00 0.01 0.00 0.01 0.01 0.01 0.01 0.01 0.01 0.02 0.02 0.03 0.03 0.02 0.03 0.04 0.01 0.01 0.01 0.01 0.01 0.01 0.01 0.02 0.02 0.02 0.02 0.02 0.02 0.02 0.02 0.03 0.03 0.03
0.00 0.00 0.01 0.01 0.01 0.01 0.01 0.00 0.00 0.00 0.00 0.00 0.00 0.01 0.00 0.00 0.00 0.00 0.01 0.01 0.02 0.03 0.03 0.03 0.02 0.02 0.01 0.00 0.00 0.01 0.01 0.01 0.02 0.01 0.01 0.02 0.02 0.02 0.02 0.03 0.04 0.05 0.03 0.02
MSLP
1011.61 1012.18 1012.66 1013.02 1013.28 1013.46 1013.62 1013.80 1014.03 1014.31 1014.63 1014.97 1015.27 1015.47 1015.55 1015.49 1015.26 1014.90 1014.43 1013.90 1013.34 1012.79 1012.29 1011.83 1011.44 1011.11 1010.82 1010.55 1010.30 1010.03 1009.73 1009.40 1009.01 1008.58 1008.12 1007.64 1007.17 1006.73 1006.33 1006.01 1005.74 1005.54 1005.41 1005.33
1012.70 1013.21 1013.59 1013.83 1013.97 1014.01 1014.03 1014.07 1014.17 1014.34 1014.57 1014.85 1015.11 1015.32 1015.43 1015.39 1015.21 1014.88 1014.43 1013.90 1013.32 1012.73 1012.17 1011.66 1011.21 1010.83 1010.50 1010.21 1009.95 1009.69 1009.40 1009.07 1008.69 1008.27 1007.81 1007.34 1006.87 1006.42 1006.03 1005.71 1005.45 1005.24 1005.10 1005.01
1013.79 1014.20 1014.47 1014.60 1014.60 1014.51 1014.39 1014.29 1014.27 1014.33 1014.47 1014.68 1014.91 1015.11 1015.23 1015.23 1015.09 1014.81 1014.40 1013.88 1013.29 1012.67 1012.07 1011.49 1010.98 1010.54 1010.16 1009.83 1009.55 1009.26 1008.97 1008.64 1008.26 1007.84 1007.39 1006.92 1006.45 1006.02 1005.65 1005.34 1005.09 1004.91 1004.79 1004.70
1014.75 1015.05 1015.21 1015.22 1015.10 1014.91 1014.68 1014.47 1014.34 1014.30 1014.36 1014.51 1014.69 1014.87 1015.00 1015.03 1014.93 1014.70 1014.32 1013.83 1013.25 1012.61 1011.97 1011.34 1010.76 1010.25 1009.80 1009.42 1009.08 1008.76 1008.44 1008.10 1007.72 1007.31 1006.86 1006.40 1005.95 1005.54 1005.19 1004.90 1004.69 1004.54 1004.44 1004.38
1015.51 1015.69 1015.75 1015.66 1015.47 1015.20 1014.90 1014.62 1014.42 1014.31 1014.30 1014.38 1014.51 1014.67 1014.79 1014.83 1014.75 1014.55 1014.21 1013.75 1013.18 1012.54 1011.86 1011.19 1010.55 1009.96 1009.44 1008.98 1008.58 1008.21 1007.85 1007.49 1007.10 1006.69 1006.25 1005.81 1005.38 1004.99 1004.67 1004.41 1004.23 1004.11 1004.04 1004.01
1016.04 1016.12 1016.10 1015.96 1015.73 1015.43 1015.10 1014.81 1014.57 1014.41 1014.35 1014.37 1014.45 1014.55 1014.64 1014.66 1014.59 1014.40 1014.08 1013.64 1013.09 1012.45 1011.75 1011.04 1010.34 1009.69 1009.09 1008.55 1008.07 1007.64 1007.24 1006.85 1006.45 1006.04 1005.61 1005.19 1004.79 1004.42 1004.11 1003.87 1003.70 1003.60 1003.55 1003.55
1016.39 1016.41 1016.34 1016.18 1015.95 1015.67 1015.37 1015.09 1014.86 1014.69 1014.59 1014.55 1014.57 1014.60 1014.61 1014.58 1014.47 1014.27 1013.94 1013.50 1012.96 1012.32 1011.62 1010.88 1010.15 1009.43 1008.77 1008.15 1007.61 1007.11 1006.66 1006.23 1005.81 1005.40 1004.98 1004.57 1004.18 1003.83 1003.53 1003.29 1003.11 1003.01 1002.97 1002.97
1016.66 1016.64 1016.56 1016.42 1016.23 1016.01 1015.77 1015.55 1015.35 1015.18 1015.05 1014.96 1014.89 1014.82 1014.73 1014.61 1014.42 1014.15 1013.80 1013.34 1012.79 1012.16 1011.46 1010.72 1009.96 1009.21 1008.49 1007.82 1007.20 1006.64 1006.13 1005.66 1005.22 1004.79 1004.37 1003.97 1003.58 1003.23 1002.91 1002.66 1002.46 1002.33 1002.27 1002.27
1016.91 1016.89 1016.83 1016.74 1016.63 1016.49 1016.34 1016.19 1016.04 1015.89 1015.74 1015.59 1015.42 1015.23 1015.01 1014.75 1014.44 1014.08 1013.65 1013.16 1012.60 1011.97 1011.28 1010.55 1009.78 1009.01 1008.26 1007.54 1006.86 1006.23 1005.67 1005.14 1004.65 1004.19 1003.76 1003.35 1002.95 1002.59 1002.26 1001.98 1001.75 1001.59 1001.49 1001.47
1017.21 1017.21 1017.20 1017.17 1017.14 1017.09 1017.05 1016.98 1016.89 1016.76 1016.59 1016.37 1016.09 1015.76 1015.39 1014.97 1014.51 1014.03 1013.51 1012.96 1012.37 1011.74 1011.07 1010.35 1009.61 1008.84 1008.07 1007.31 1006.57 1005.87 1005.23 1004.63 1004.08 1003.57 1003.10 1002.66 1002.25 1001.87 1001.53 1001.22 1000.97 1000.78 1000.67 1000.63
1017.55 1017.59 1017.62 1017.66 1017.70 1017.75 1017.78 1017.79 1017.76 1017.65 1017.46 1017.18 1016.81 1016.34 1015.81 1015.23 1014.62 1013.99 1013.37 1012.75 1012.13 1011.50 1010.85 1010.16 1009.44 1008.68 1007.89 1007.09 1006.29 1005.51 1004.76 1004.06 1003.41 1002.83 1002.29 1001.81 1001.38 1000.99 1000.65 1000.36 1000.12 999.94 999.83 999.82
1017.88 1017.95 1018.02 1018.10 1018.21 1018.31 1018.42 1018.49 1018.50 1018.42 1018.22 1017.89 1017.44 1016.87 1016.20 1015.47 1014.72 1013.97 1013.25 1012.56 1011.90 1011.26 1010.63 1009.96 1009.26 1008.51 1007.70 1006.85 1005.96 1005.07 1004.20 1003.37 1002.59 1001.89 1001.28 1000.75 1000.29 999.92 999.61 999.37 999.19 999.08 999.05 999.09
1018.14 1018.22 1018.31 1018.41 1018.53 1018.68 1018.83 1018.95 1019.00 1018.94 1018.75 1018.40 1017.89 1017.25 1016.49 1015.65 1014.79 1013.94 1013.14 1012.39 1011.70 1011.06 1010.43 1009.78 1009.08 1008.31 1007.47 1006.54 1005.55 1004.53 1003.49 1002.50 1001.57 1000.74 1000.02 999.43 998.97 998.63 998.40 998.27 998.21 998.23 998.33 998.50
1018.26 1018.33 1018.41 1018.50 1018.62 1018.78 1018.94 1019.08 1019.16 1019.13 1018.96 1018.62 1018.11 1017.44 1016.63 1015.75 1014.83 1013.92 1013.07 1012.28 1011.57 1010.91 1010.27 1009.63 1008.91 1008.12 1007.21 1006.19 1005.07 1003.88 1002.66 1001.48 1000.37 999.39 998.57 997.92 997.46 997.18 997.06 997.08 997.21 997.43 997.73 998.09
1018.23 1018.27 1018.31 1018.37 1018.47 1018.60 1018.76 1018.91 1019.01 1019.01 1018.88 1018.58 1018.10 1017.45 1016.66 1015.77 1014.84 1013.92 1013.04 1012.24 1011.51 1010.84 1010.19 1009.52 1008.78 1007.93 1006.94 1005.80 1004.53 1003.17 1001.77 1000.39 999.11 997.97 997.04 996.34 995.89 995.69 995.71 995.93 996.28 996.75 997.28 997.87
1018.09 1018.09 1018.08 1018.09 1018.13 1018.23 1018.36 1018.51 1018.62 1018.66 1018.57 1018.33 1017.91 1017.33 1016.59 1015.75 1014.85 1013.95 1013.09 1012.29 1011.55 1010.87 1010.20 1009.49 1008.71 1007.79 1006.71 1005.46 1004.05 1002.53 1000.95 999.40 997.95 996.68 995.65 994.92 994.49 994.37 994.55 994.95 995.55 996.27 997.06 997.89
1017.89 1017.85 1017.79 1017.75 1017.75 1017.80 1017.90 1018.03 1018.15 1018.21 1018.17 1017.99 1017.65 1017.15 1016.50 1015.73 1014.90 1014.05 1013.21 1012.43 1011.69 1010.99 1010.30 1009.56 1008.72 1007.75 1006.59 1005.24 1003.73 1002.08 1000.37 998.69 997.11 995.74 994.65 993.89 993.49 993.46 993.77 994.35 995.15 996.10 997.13 998.17
1017.73 1017.65 1017.56 1017.48 1017.43 1017.45 1017.51 1017.62 1017.73 1017.81 1017.80 1017.67 1017.41 1016.99 1016.43 1015.75 1014.99 1014.20 1013.41 1012.65 1011.92 1011.21 1010.50 1009.73 1008.85 1007.83 1006.63 1005.24 1003.67 1001.97 1000.19 998.44 996.81 995.40 994.28 993.52 993.15 993.19 993.59 994.31 995.26 996.37 997.56 998.76
1017.63 1017.55 1017.44 1017.34 1017.28 1017.26 1017.30 1017.38 1017.47 1017.55 1017.55 1017.47 1017.25 1016.90 1016.41 1015.82 1015.13 1014.40 1013.66 1012.92 1012.21 1011.50 1010.77 1009.99 1009.11 1008.09 1006.89 1005.51 1003.95 1002.27 1000.52 998.79 997.19 995.79 994.69 993.96 993.63 993.70 994.16 994.94 995.97 997.15 998.42 999.68
1017.61 1017.54 1017.45 1017.35 1017.29 1017.26 1017.28 1017.33 1017.40 1017.45 1017.46 1017.37 1017.19 1016.88 1016.45 1015.91 1015.29 1014.61 1013.91 1013.21 1012.52 1011.82 1011.11 1010.34 1009.48 1008.50 1007.36 1006.05 1004.59 1003.01 1001.37 999.75 998.24 996.93 995.91 995.23 994.93 995.02 995.49 996.27 997.28 998.45 999.70 1000.94
1017.61 1017.57 1017.52 1017.46 1017.41 1017.39 1017.39 1017.43 1017.46 1017.49 1017.46 1017.37 1017.18 1016.89 1016.49 1016.00 1015.43 1014.80 1014.15 1013.48 1012.82 1012.15 1011.47 1010.75 1009.95 1009.04 1008.01 1006.83 1005.53 1004.13 1002.67 1001.23 999.89 998.73 997.81 997.21 996.95 997.04 997.47 998.18 999.12 1000.20 1001.34 1002.48
1017.57 1017.58 1017.57 1017.55 1017.54 1017.54 1017.55 1017.56 1017.56 1017.55 1017.49 1017.37 1017.17 1016.87 1016.49 1016.03 1015.50 1014.92 1014.32 1013.71 1013.09 1012.48 1011.85 1011.19 1010.48 1009.69 1008.79 1007.79 1006.68 1005.49 1004.27 1003.06 1001.93 1000.95 1000.17 999.66 999.44 999.52 999.89 1000.51 1001.31 1002.24 1003.23 1004.21
1017.43 1017.48 1017.52 1017.55 1017.58 1017.60 1017.61 1017.62 1017.60 1017.55 1017.45 1017.30 1017.07 1016.78 1016.41 1015.98 1015.49 1014.97 1014.43 1013.89 1013.34 1012.79 1012.24 1011.67 1011.05 1010.38 1009.64 1008.82 1007.93 1006.97 1005.98 1005.01 1004.11 1003.31 1002.69 1002.29 1002.11 1002.17 1002.47 1002.97 1003.63 1004.39 1005.19 1005.99
1017.16 1017.24 1017.32 1017.39 1017.46 1017.51 1017.53 1017.54 1017.50 1017.43 1017.30 1017.12 1016.88 1016.59 1016.24 1015.85 1015.42 1014.97 1014.50 1014.03 1013.57 1013.10 1012.64 1012.16 1011.65 1011.10 1010.51 1009.85 1009.14 1008.39 1007.63 1006.87 1006.18 1005.57 1005.09 1004.77 1004.64 1004.69 1004.93 1005.32 1005.83 1006.43 1007.06 1007.69
1016.78 1016.86 1016.97 1017.07 1017.17 1017.25 1017.29 1017.30 1017.26 1017.17 1017.03 1016.84 1016.60 1016.32 1016.01 1015.66 1015.30 1014.93 1014.56 1014.19 1013.81 1013.45 1013.07 1012.68 1012.27 1011.83 1011.34 1010.82 1010.25 1009.67 1009.07 1008.49 1007.96 1007.50 1007.14 1006.90 1006.80 1006.85 1007.03 1007.33 1007.73 1008.20 1008.69 1009.18
1016.33 1016.41 1016.52 1016.64 1016.77 1016.87 1016.94 1016.96 1016.93 1016.84 1016.70 1016.51 1016.29 1016.04 1015.77 1015.49 1015.21 1014.93 1014.65 1014.38 1014.12 1013.84 1013.55 1013.25 1012.91 1012.54 1012.13 1011.69 1011.23 1010.74 1010.25 1009.79 1009.36 1008.99 1008.71 1008.53 1008.47 1008.51 1008.66 1008.90 1009.23 1009.60 1010.00 1010.40
Thickness
5794 5788 5783 5783 5787 5785 5781 5777 5772 5772 5776 5770 5763 5758 5757 5756 5752 5748 5745 5743 5740 5737 5737 5735 5732 5729 5726 5723 5719 5716 5713 5711 5709 5707 5704 5700 5699 5698 5697 5696 5694 5693 5691 5689
5785 5779 5784 5788 5786 5781 5778 5771 5769 5769 5771 5763 5758 5754 5754 5751 5746 5742 5738 5736 5734 5732 5730 5727 5725 5722 5719 5715 5712 5710 5706 5704 5702 5700 5697 5695 5693 5692 5691 5690 5687 5686 5685 5683
5776 5778 5784 5780 5775 5772 5772 5768 5765 5760 5762 5762 5754 5747 5745 5745 5743 5737 5734 5732 5730 5726 5723 5720 5717 5715 5713 5709 5706 5703 5699 5696 5694 5692 5691 5689 5687 5686 5685 5683 5681 5680 5679 5678
5777 5780 5777 5773 5769 5768 5764 5771 5766 5759 5753 5754 5751 5738 5742 5738 5732 5728 5727 5725 5723 5721 5719 5715 5711 5709 5706 5703 5701 5696 5692 5689 5687 5685 5685 5682 5680 5678 5677 5676 5676 5674 5673 5673
5768 5772 5770 5764 5763 5765 5763 5769 5764 5760 5754 5749 5749 5736 5739 5735 5723 5721 5720 5718 5716 5715 5713 5709 5706 5703 5701 5698 5695 5691 5687 5683 5680 5678 5677 5675 5675 5674 5673 5671 5669 5669 5668 5667
5770 5774 5770 5764 5767 5764 5764 5762 5761 5758 5755 5734 5739 5730 5727 5726 5718 5717 5715 5713 5710 5708 5706 5703 5701 5698 5695 5692 5688 5685 5680 5677 5674 5673 5672 5669 5668 5667 5666 5665 5664 5664 5664 5663
5759 5763 5766 5766 5757 5760 5757 5748 5740 5737 5735 5732 5737 5724 5718 5719 5718 5713 5709 5707 5706 5704 5700 5696 5693 5691 5688 5685 5681 5678 5674 5670 5669 5668 5666 5665 5663 5662 5661 5661 5659 5659 5659 5658
5746 5746 5753 5754 5748 5742 5744 5740 5723 5714 5718 5728 5730 5718 5717 5716 5715 5711 5708 5704 5701 5697 5694 5691 5688 5685 5681 5678 5675 5671 5668 5665 5664 5663 5662 5661 5660 5660 5659 5656 5655 5655 5654 5653
5741 5739 5750 5749 5749 5745 5738 5736 5735 5723 5724 5715 5719 5717 5712 5711 5707 5703 5700 5696 5692 5690 5687 5685 5682 5679 5675 5672 5669 5666 5663 5660 5659 5658 5657 5657 5656 5655 5654 5651 5650 5651 5649 5648
5741 5728 5741 5744 5746 5740 5737 5731 5726 5716 5698 5697 5708 5708 5702 5697 5695 5694 5692 5689 5686 5684 5682 5679 5677 5673 5670 5668 5665 5662 5659 5656 5654 5653 5653 5653 5652 5650 5649 5648 5646 5646 5645 5644
5739 5725 5730 5733 5726 5724 5724 5720 5715 5713 5706 5691 5689 5694 5701 5694 5690 5687 5686 5684 5682 5679 5677 5674 5671 5669 5666 5663 5661 5657 5654 5651 5649 5649 5648 5647 5647 5647 5646 5644 5643 5643 5642 5642
5731 5726 5720 5724 5729 5727 5720 5713 5708 5693 5691 5693 5685 5685 5698 5692 5688 5684 5681 5679 5677 5675 5672 5670 5666 5663 5660 5657 5655 5652 5650 5647 5646 5645 5644 5643 5643 5642 5642 5641 5640 5640 5639 5638
5725 5715 5708 5713 5714 5715 5711 5709 5705 5697 5689 5685 5677 5680 5692 5686 5682 5680 5676 5673 5671 5669 5666 5665 5661 5657 5654 5652 5649 5647 5645 5643 5643 5642 5641 5640 5639 5638 5637 5637 5637 5636 5635 5634
5721 5713 5706 5698 5701 5705 5701 5701 5700 5693 5684 5680 5680 5679 5682 5677 5674 5673 5671 5668 5666 5663 5661 5659 5655 5652 5649 5646 5644 5643 5641 5640 5639 5638 5637 5636 5635 5635 5634 5634 5634 5633 5632 5631
5716 5708 5707 5706 5707 5702 5697 5694 5693 5687 5683 5676 5676 5673 5673 5671 5668 5667 5666 5664 5660 5657 5655 5653 5650 5646 5643 5641 5640 5638 5637 5636 5634 5634 5633 5632 5633 5632 5632 5631 5630 5629 5628 5627
5709 5701 5701 5698 5701 5697 5690 5689 5687 5683 5681 5677 5674 5670 5673 5670 5667 5663 5660 5657 5654 5652 5650 5648 5645 5642 5639 5637 5635 5634 5632 5631 5631 5630 5630 5630 5629 5629 5629 5627 5626 5625 5624 5623
5705 5696 5691 5692 5696 5689 5682 5684 5681 5678 5677 5672 5665 5666 5668 5663 5659 5656 5654 5652 5649 5648 5646 5644 5641 5637 5634 5633 5631 5629 5629 5628 5627 5626 5627 5627 5627 5626 5625 5625 5624 5622 5620 5618
5696 5691 5691 5690 5684 5672 5681 5688 5681 5674 5671 5670 5665 5664 5662 5657 5655 5654 5652 5648 5645 5643 5641 5639 5637 5634 5632 5630 5628 5627 5627 5625 5624 5624 5624 5624 5624 5624 5623 5622 5620 5618 5617 5615
5695 5688 5687 5684 5678 5678 5681 5680 5675 5667 5664 5666 5660 5658 5657 5656 5654 5653 5650 5644 5641 5639 5638 5636 5634 5631 5628 5626 5624 5623 5622 5622 5621 5620 5621 5622 5621 5621 5620 5618 5616 5615 5613 5612
5689 5686 5683 5679 5668 5665 5672 5676 5675 5666 5657 5661 5656 5652 5650 5648 5644 5645 5644 5641 5639 5636 5634 5632 5631 5629 5625 5623 5621 5619 5618 5617 5617 5617 5618 5619 5619 5618 5617 5616 5614 5613 5611 5610
5682 5679 5676 5673 5667 5671 5671 5671 5667 5651 5649 5653 5651 5647 5644 5640 5637 5637 5638 5637 5635 5632 5630 5629 5627 5624 5623 5620 5618 5616 5616 5615 5615 5616 5616 5617 5617 5616 5616 5614 5612 5611 5610 5609
5677 5675 5670 5668 5661 5660 5664 5662 5652 5648 5649 5648 5645 5642 5638 5636 5636 5635 5633 5632 5631 5628 5626 5625 5623 5622 5620 5618 5616 5614 5613 5614 5614 5614 5614 5615 5615 5616 5616 5612 5610 5609 5608 5607
5674 5671 5671 5665 5661 5659 5658 5654 5651 5648 5643 5641 5639 5637 5634 5631 5630 5630 5629 5629 5627 5625 5623 5621 5620 5619 5618 5616 5614 5612 5612 5613 5612 5613 5613 5613 5614 5614 5613 5611 5611 5610 5609 5609
5669 5664 5660 5656 5657 5655 5652 5649 5646 5642 5638 5637 5634 5631 5629 5626 5626 5625 5625 5624 5622 5621 5619 5618 5617 5616 5615 5614 5613 5612 5612 5612 5611 5611 5611 5612 5613 5613 5612 5611 5612 5612 5610 5609
5659 5656 5652 5648 5649 5648 5646 5641 5638 5636 5633 5631 5629 5626 5623 5621 5620 5619 5619 5618 5617 5617 5616 5615 5614 5614 5614 5614 5613 5613 5612 5611 5610 5610 5611 5612 5614 5614 5612 5611 5610 5610 5608 5606
5654 5649 5643 5643 5642 5637 5635 5635 5632 5628 5625 5623 5621 5620 5619 5617 5615 5614 5614 5613 5613 5613 5613 5613 5612 5613 5613 5613 5613 5613 5612 5611 5610 5611 5611 5613 5614 5614 5614 5613 5611 5606 5603 5600